Hourly Data Report for October 09, 2015

All times are specified in Local Standard Time (LST). Add 1 hour to adjust for Daylight Saving Time where and when it is observed.

KUGLUKTUK A
NUNAVUT

67°49'00.000" N
115°08'38.000" W
22.60 m
2300903
71938
YCO

Download Data

Hourly Data (October 2015)
Hourly Data Report for October 9, 2015
Temp Definition
°C
Dew Point Temp Definition
°C
Rel Hum Definition
%
Wind Dir Definition
10's deg

Wind Spd Definition
km/h
Visibility Definition
km
Stn Press Definition
kPa
Hmdx Definition


Wind Chill Definition


Weather Definition


TIME
00:00 Legend Double Dagger -9.1 -11.5 83 25 24 24.1 101.62   -17 LegendNANA
01:00 Legend Double Dagger -9.8 -12.2 83 24 23 24.1 101.57   -18 LegendNANA
02:00 Legend Double Dagger -9.7 -12.5 80 24 25 24.1 101.52   -18 Clear
03:00 Legend Double Dagger -9.8 -12.5 81 24 23 24.1 101.47   -18 LegendNANA
04:00 Legend Double Dagger -10.8 -12.6 87 23 17 24.1 101.42   -18 LegendNANA
05:00 Legend Double Dagger -10.7 -12.5 87 22 15 24.1 101.38   -18 Clear
06:00 Legend Double Dagger -10.9 -12.7 87 22 18 24.1 101.32   -19 LegendNANA
07:00 Legend Double Dagger -11.2 -13.1 86 21 13 24.1 101.24   -18 LegendNANA
08:00 Legend Double Dagger -10.8 -12.7 86 21 13 24.1 101.17   -17 Clear
09:00 Legend Double Dagger -9.1 -11.9 80 22 20 24.1 101.12   -17 LegendNANA
10:00 Legend Double Dagger -7.8 -11.3 76 22 20 24.1 101.03   -15 LegendNANA
11:00 Legend Double Dagger -6.6 -11.0 71 26 16 24.1 100.92   -13 Mainly Clear
12:00 Legend Double Dagger -6.1 -11.5 66 27 15 24.1 100.83   -12 LegendNANA
13:00 Legend Double Dagger -5.2 -11.4 62 25 17 24.1 100.77   -11 LegendNANA
14:00 Legend Double Dagger -4.4 -11.1 60 26 16 24.1 100.66   -10 Clear
15:00 Legend Double Dagger -3.8 -10.9 58 25 20 24.1 100.58   -10 LegendNANA
16:00 Legend Double Dagger -4.2 -10.7 61 24 22 24.1 100.50   -11 LegendNANA
17:00 Legend Double Dagger -5.3 -10.9 65 24 16 24.1 100.42   -11 Clear
18:00 Legend Double Dagger -7.2 -10.7 76 23 14 24.1 100.35   -13 LegendNANA
19:00 Legend Double Dagger -8.0 -10.4 83 22 16 24.1 100.28   -15 LegendNANA
20:00 Legend Double Dagger -9.1 -11.0 86 22 18 24.1 100.19   -16 Clear
21:00 Legend Double Dagger -10.4 -12.0 88 23 17 24.1 100.14   -18 LegendNANA
22:00 Legend Double Dagger -9.1 -11.2 85 25 16 24.1 100.11   -16 LegendNANA
23:00 Legend Double Dagger -10.6 -12.1 89 24 15 24.1 100.04   -17 Clear

Notes on Data Quality.

Legend

  • E = Estimated
  • M = Missing
  • NA = Not Available
  • ‡ = Partner data that is not subject to review by the National Climate Archives
Date modified: